Regional Weather Roundup
Issued by NWS

Home | Current Version | Previous Version | Text Only | Print | Product List | Glossary Off
Versions: 1 2 3 4 5 6 7 8 9 10 11 12 13 14 15 16 17 18 19 20 21 22 23 24 25 26 27 28 29 30 31 32 33 34 35 36 37 38 39 40 41 42 43 44 45 46 47 48 49 50

453
ASUS43 KLOT 211703
RWRIL

ILLINOIS REGIONAL WEATHER ROUNDUP
NATIONAL WEATHER SERVICE CHICAGO/ROMEOVILLE IL
1100 AM CST SAT JAN 21 2017

NOTE: "FAIR" INDICATES FEW OR NO CLOUDS BELOW 12,000 FEET WITH NO
SIGNIFICANT WEATHER AND/OR OBSTRUCTIONS TO VISIBILITY.

* THESE STATIONS ARE NOT UNDER NWS QUALITY CONTROL. THEY ALSO MAY NOT
  REPORT WEATHER SUCH AS PRECIPITATION OR FOG.

ILZ001-002-007-009-015-016-024-211800-
NORTHWEST ILLINOIS

CITY           SKY/WX    TMP DP  RH WIND       PRES   REMARKS
MOLINE         MOSUNNY   51  43  74 SW9G20    29.45R
STERLING*      SUNNY     52  46  80 VRB7      29.47F
SAVANNA*       FOG       42  42  99 SW5       29.46R VSB<1/4
$$

ILZ003-004-008-010-011-017-018-211800-
NORTH CENTRAL ILLINOIS

CITY           SKY/WX    TMP DP  RH WIND       PRES   REMARKS
ROCKFORD       MOSUNNY   51  47  86 S13       29.49F
FREEPORT*      SUNNY     47  47  99 S13       29.46F
ROCHELLE*      SUNNY     51  48  92 S15G21    29.48F
DE KALB*         N/A     49  49  99 S16       29.50S
$$

ILZ005-006-012>014-019>023-211800-
NORTHEAST ILLINOIS

CITY           SKY/WX    TMP DP  RH WIND       PRES   REMARKS
CHICAGO-OHARE  MOSUNNY   56  47  71 S12       29.50F
CHICAGO-MIDWAY MOSUNNY   55  47  74 S14       29.51F
AURORA         NOT AVBL
LANSING*       SUNNY     55  52  89 S13       29.53F
JOLIET*        SUNNY     57  49  75 S13       29.52F
WAUKEGAN       FOG       45  44  97 SE7       29.50S VSB<1/4
DUPAGE AIRPORT SUNNY     55  47  74 S13G22    29.50F
WHEELING       SUNNY     55  48  77 S13       29.52F
MORRIS*        SUNNY     53  51  90 S14       29.51S
NORTHERLY ISL    N/A     54  48  80 S12         N/A
$$

LMZ740>746-211800-
SOUTHERN LAKE MICHIGAN

STATION/POSITION SKY/WX   TEMP    WIND        PRES    VSBY  WAVE
                          AIR SEA DIR/SP/G                  HT/PER
                          (F)     (DEG/KT/KT) (MB)    (MI)  (FT/S)
HARRISON CRIB              48     170/ 16/ 18   N/A
BURNHAM HARBOR             55     200/ 11/ 13   N/A
CALUMET HARBOR             54     180/ 10/ 15  999.6F
BURNS HARBOR               54     180/ 14/ 19 1001.4F
MICHIGAN CITY              54     150/ 12/ 15   N/A
$$

ILZ025>027-034>036-040-047-049-050-058-095>099-211800-
WEST-CENTRAL ILLINOIS

CITY           SKY/WX    TMP DP  RH WIND       PRES   REMARKS
QUINCY         SUNNY     53  44  71 SW14      29.52R
GALESBURG*     SUNNY     51  44  78 SW17      29.48S
MACOMB*        SUNNY     53  46  77 SW17G23   29.51S
JACKSONVILLE*  SUNNY     57  44  61 SW17G23   29.53R
PITTSFIELD*    SUNNY     56  43  61 SW15G23   29.54R
$$

ILZ028>032-037-038-041>044-048-051>054-059>061-211800-
CENTRAL ILLINOIS

CITY           SKY/WX    TMP DP  RH WIND       PRES   REMARKS
BLOOMINGTON    SUNNY     57  48  72 SW21      29.53F
DECATUR        SUNNY     58  51  78 S17       29.55F
PEORIA         SUNNY     56  46  69 SW15G25   29.50S
LACON*         SUNNY     55  46  72 SW13G18   29.49S
LINCOLN*       SUNNY     60  49  68 SW9       29.52F
SPRINGFIELD    SUNNY     60  48  64 SW14G24   29.52F
TAYLORVILLE    SUNNY     58  50  73 S20       29.55S
$$

ILZ033-039-045-046-055>057-062-063-211800-
EAST-CENTRAL ILLINOIS

CITY           SKY/WX    TMP DP  RH WIND       PRES   REMARKS
CHAMPAIGN      SUNNY     57  51  80 S21       29.56F
MATTOON        MOSUNNY   57  51  80 S12G21    29.57F
PARIS*         MOSUNNY   56  53  89 S18       29.61R
$$

ILZ079-100>102-211800-
SOUTHWEST ILLINOIS

CITY           SKY/WX    TMP DP  RH WIND       PRES   REMARKS
ALTON          SUNNY     59  48  67 SW12      29.57F
BELLEVILLE     SUNNY     61  53  75 VRB3      29.57F
CAHOKIA*       SUNNY     60  47  61 SW8G20    29.57F
SPARTA*        SUNNY     62  50  65 S13G21    29.61R
$$

ILZ064>066-069>071-074>076-080>082-084>086-088>090-092>094-211800-
SOUTH-CENTRAL ILLINOIS

CITY           SKY/WX    TMP DP  RH WIND       PRES   REMARKS
CARBONDALE     SUNNY     63  57  81 SW18      29.63R
CAIRO*         SUNNY     64  55  71 S15G23    29.65F
EFFINGHAM*     MOSUNNY   60  55  83 S12       29.61S
MARION         MOSUNNY   64  57  77 SW13      29.64S
MT. VERNON     MOSUNNY   62  54  74 S20       29.61S
CENTRALIA*     SUNNY     62  55  76 S13G18    29.59S
SALEM*         SUNNY     62  53  70 SW13      29.60S
$$

ILZ067-068-072-073-078-083-087-091-211800-
SOUTHEAST ILLINOIS

CITY           SKY/WX    TMP DP  RH WIND       PRES   REMARKS
LAWRENCEVILLE  CLOUDY    59  55  87 S17       29.63F
FLORA*         MOSUNNY   62  56  81 S15       29.61F
FAIRFIELD*     MOSUNNY   60  55  83 S9        29.62S
HARRISBURG*    MOSUNNY   64  56  75 S10G20    29.64F
ROBINSON*      MOSUNNY   57  53  88 S14       29.63S
CARMI*         CLOUDY    59  55  87 S15       29.63F
$$

ABBREVIATIONS USED IN REMARKS
   TC - TEMPERATURE IN CELSIUS
  WCI - WIND CHILL INDEX
   HX - HEAT INDEX
  VSB - VISIBILITY
$$





USA.gov is the U.S. government's official web portal to all federal, state and local government web resources and services.